This is the latest recevied weather packets stored in our database for station/object YF9UAG-17. If no packets are shown the sender has not sent any weather packets the latest 10 day(s).
| Time | Temp. | Humidity | Pressure | Rain* | Wind** | Luminosity | Snow |
|---|---|---|---|---|---|---|---|
| 1787487568 | 30° C | 54% | 1033.9 hPa | - | - | - | - |
| 1787486964 | 30.56° C | 53% | 1033.8 hPa | - | - | - | - |
| 1787486360 | 30° C | 53% | 1033.7 hPa | - | - | - | - |
| 1787485756 | 30.56° C | 52% | 1033.5 hPa | - | - | - | - |
| 1787485153 | 30.56° C | 52% | 1033.3 hPa | - | - | - | - |
| 1787484550 | 30.56° C | 52% | 1033.2 hPa | - | - | - | - |
| 1787483947 | 31.11° C | 51% | 1033.1 hPa | - | - | - | - |
| 1787483344 | 31.11° C | 51% | 1032.9 hPa | - | - | - | - |
| 1787482741 | 31.11° C | 50% | 1032.9 hPa | - | - | - | - |
| 1787482137 | 31.67° C | 49% | 1032.8 hPa | - | - | - | - |
| 1787481534 | 31.11° C | 50% | 1032.7 hPa | - | - | - | - |
| 1787480931 | 31.67° C | 48% | 1032.6 hPa | - | - | - | - |
| 1787480328 | 32.22° C | 49% | 1032.4 hPa | - | - | - | - |
| 1787479725 | 32.22° C | 48% | 1032.2 hPa | - | - | - | - |
| 1787479122 | 32.78° C | 48% | 1032 hPa | - | - | - | - |
| 1787478519 | 31.67° C | 49% | 1032 hPa | - | - | - | - |
| 1787477915 | 32.22° C | 48% | 1031.7 hPa | - | - | - | - |
| 1787477311 | 32.78° C | 47% | 1031.6 hPa | - | - | - | - |
| 1787476708 | 32.78° C | 47% | 1031.5 hPa | - | - | - | - |
| 1787476105 | 32.78° C | 47% | 1031.4 hPa | - | - | - | - |
| 1787475500 | 32.78° C | 47% | 1031.2 hPa | - | - | - | - |
| 1787474897 | 32.78° C | 47% | 1031 hPa | - | - | - | - |
| 1787474294 | 32.22° C | 47% | 1031.1 hPa | - | - | - | - |
| 1787473691 | 31.67° C | 47% | 1030.8 hPa | - | - | - | - |
| 1787473088 | 31.11° C | 45% | 1030.7 hPa | - | - | - | - |
* Rain since midnight (hover to see other rain measurements)
** Current wind speed in m/s (hover to see current wind gust speed)